DW1234 Weather Reports


time (UTC)temp
C
wind
direction
speed
KPH
gust
KPH
rain 1hr
cm
rain 24hr
cm
rain mn
cm
humidity
%
barometer
mb
20260507030246 10 169 4.8 8.0 0.00 0.00 0.00 36 1016.7
20260507030028 10 169 6.4 6.4 0.00 0.00 0.00 36 1016.7
20260507025728 11 169 6.4 8.0 0.00 0.00 0.00 36 1016.6
20260507025240 11 169 4.8 6.4 0.00 0.00 0.00 36 1016.6
20260507024752 11 169 4.8 8.0 0.00 0.00 0.00 36 1016.6
20260507024524 11 169 4.8 8.0 0.00 0.00 0.00 36 1016.7
20260507024240 11 169 4.8 9.7 0.00 0.00 0.00 35 1016.6
20260507023722 11 173 8.0 9.7 0.00 0.00 0.00 35 1016.5
20260507023235 11 177 3.2 4.8 0.00 0.00 0.00 34 1016.4
20260507023028 11 187 1.6 4.8 0.00 0.00 0.00 34 1016.5
20260507022747 11 187 3.2 4.8 0.00 0.00 0.00 34 1016.4
20260507022229 11 205 3.2 4.8 0.00 0.00 0.00 33 1016.4
20260507021741 11 205 3.2 4.8 0.00 0.00 0.00 32 1016.4
20260507021530 11 205 1.6 4.8 0.00 0.00 0.00 32 1016.5
20260507021226 12 205 3.2 4.8 0.00 0.00 0.00 32 1016.4
20260507020739 12 205 3.2 4.8 0.00 0.00 0.00 32 1016.4
20260507020221 12 205 1.6 4.8 0.00 0.00 0.00 31 1016.4
20260507020046 12 205 3.2 4.8 0.00 0.00 0.00 31 1016.4
20260507015728 12 205 3.2 4.8 0.00 0.00 0.00 31 1016.4
20260507015240 12 205 3.2 4.8 0.00 0.00 0.00 30 1016.4
20260507014725 12 205 3.2 4.8 0.00 0.00 0.00 30 1016.4
20260507014546 12 274 3.2 4.8 0.00 0.00 0.00 30 1016.5
20260507014258 12 274 3.2 4.8 0.00 0.00 0.00 30 1016.4
20260507013722 13 274 3.2 4.8 0.00 0.00 0.00 30 1016.3
20260507013233 13 274 0.0 3.2 0.00 0.00 0.00 30 1016.3
20260507013017 13 274 0.0 3.2 0.00 0.00 0.00 30 1016.3
20260507012800 13 274 1.6 3.2 0.00 0.00 0.00 29 1016.3
20260507012224 13 274 1.6 4.8 0.00 0.00 0.00 29 1016.3
20260507011736 14 274 3.2 4.8 0.00 0.00 0.00 29 1016.3
20260507011506 14 274 0.0 6.4 0.00 0.00 0.00 29 1016.4
20260507011251 14 274 3.2 6.4 0.00 0.00 0.00 29 1016.3
20260507010733 15 274 3.2 6.4 0.00 0.00 0.00 28 1016.3
20260507010243 15 298 3.2 6.4 0.00 0.00 0.00 27 1016.3
20260507010010 15 298 0.0 6.4 0.00 0.00 0.00 27 1016.4
20260507005726 15 298 3.2 6.4 0.00 0.00 0.00 27 1016.3
20260507005238 15 309 3.2 8.0 0.00 0.00 0.00 27 1016.4
20260507004746 15 295 4.8 9.7 0.00 0.00 0.00 27 1016.4
20260507004556 15 299 4.8 16.1 0.00 0.00 0.00 27 1016.5
20260507004240 15 314 4.8 16.1 0.00 0.00 0.00 28 1016.4
20260507003750 15 302 11.3 16.1 0.00 0.00 0.00 27 1016.4
20260507003234 15 318 8.0 16.1 0.00 0.00 0.00 28 1016.4
20260507003057 15 295 6.4 17.7 0.00 0.00 0.00 28 1016.5
20260507002746 15 305 6.4 17.7 0.00 0.00 0.00 27 1016.4
20260507002227 15 351 11.3 17.7 0.00 0.00 0.00 26 1016.5
20260507001740 15 317 6.4 12.9 0.00 0.00 0.00 27 1016.5
20260507001554 15 316 8.0 12.9 0.00 0.00 0.00 27 1016.6
20260507001225 15 326 8.0 14.5 0.00 0.00 0.00 27 1016.5
20260507000731 15 282 8.0 16.1 0.00 0.00 0.00 27 1016.6
20260507000241 15 309 9.7 17.7 0.00 0.00 0.00 27 1016.7
20260507000037 15 271 9.7 17.7 0.00 0.00 0.00 27 1016.8
20260506235721 15 298 9.7 17.7 0.00 0.00 0.00 27 1016.7
20260506235234 15 296 11.3 19.3 0.00 0.00 0.00 27 1016.8
20260506234747 16 260 12.9 20.9 0.00 0.00 0.00 28 1016.8
20260506234546 15 279 12.9 20.9 0.00 0.00 0.00 27 1016.9
20260506234232 16 300 12.9 25.7 0.00 0.00 0.00 27 1016.9
20260506233740 16 260 14.5 25.7 0.00 0.00 0.00 26 1016.9
20260506233224 16 292 16.1 25.7 0.00 0.00 0.00 27 1016.9
20260506233046 16 309 16.1 25.7 0.00 0.00 0.00 27 1017.0
20260506232752 16 311 16.1 25.7 0.00 0.00 0.00 28 1016.8
20260506232243 16 360 4.8 17.7 0.00 0.00 0.00 27 1016.8
20260506231729 16 328 8.0 17.7 0.00 0.00 0.00 28 1016.9
20260506231538 16 286 9.7 17.7 0.00 0.00 0.00 28 1017.1
20260506231242 16 338 11.3 29.0 0.00 0.00 0.00 28 1017.0
20260506230725 16 300 17.7 30.6 0.00 0.00 0.00 29 1017.0
20260506230237 16 278 9.7 30.6 0.00 0.00 0.00 27 1017.0
20260506230041 15 281 17.7 30.6 0.00 0.00 0.00 27 1017.2
20260506225748 16 292 17.7 27.4 0.00 0.00 0.00 27 1017.0
20260506225228 16 292 20.9 27.4 0.00 0.00 0.00 28 1017.0
20260506224740 16 306 11.3 22.5 0.00 0.00 0.00 27 1017.0
20260506224556 16 283 11.3 24.1 0.00 0.00 0.00 29 1017.2
20260506224226 16 288 9.7 29.0 0.00 0.00 0.00 29 1017.1
20260506223758 16 306 16.1 29.0 0.00 0.00 0.00 28 1017.1
20260506223221 16 355 14.5 29.0 0.00 0.00 0.00 26 1017.1
20260506223029 16 336 17.7 32.2 0.00 0.00 0.00 28 1017.3
20260506222733 17 316 14.5 32.2 0.00 0.00 0.00 27 1017.2
20260506222246 16 305 17.7 32.2 0.00 0.00 0.00 26 1017.1
20260506221730 16 309 24.1 32.2 0.00 0.00 0.00 27 1017.2
20260506221531 16 296 14.5 32.2 0.00 0.00 0.00 28 1017.4
20260506221239 16 304 19.3 32.2 0.00 0.00 0.00 27 1017.3
20260506220749 17 313 20.9 32.2 0.00 0.00 0.00 27 1017.3
20260506220232 17 337 12.9 29.0 0.00 0.00 0.00 26 1017.3
20260506220041 17 281 14.5 29.0 0.00 0.00 0.00 28 1017.5
20260506215746 17 284 17.7 33.8 0.00 0.00 0.00 27 1017.4
20260506215235 17 299 17.7 33.8 0.00 0.00 0.00 28 1017.4
20260506214747 17 295 19.3 27.4 0.00 0.00 0.00 27 1017.4
20260506214523 16 303 8.0 30.6 0.00 0.00 0.00 32 1017.6
20260506214232 16 315 14.5 30.6 0.00 0.00 0.00 28 1017.5
20260506213738 16 292 20.9 37.0 0.00 0.00 0.00 27 1017.5
20260506213221 16 301 19.3 37.0 0.00 0.00 0.00 29 1017.6
20260506213033 16 315 14.5 25.7 0.00 0.00 0.00 30 1017.7
20260506212735 17 345 11.3 24.1 0.00 0.00 0.00 29 1017.6
20260506212247 16 283 12.9 27.4 0.00 0.00 0.00 29 1017.7
20260506211740 16 292 9.7 30.6 0.00 0.00 0.00 33 1017.7
20260506211513 16 294 19.3 37.0 0.00 0.00 0.00 30 1018.0
20260506211226 16 5 19.3 37.0 0.00 0.00 0.00 27 1017.7
20260506210736 17 344 19.3 37.0 0.00 0.00 0.00 29 1017.8
20260506210304 16 272 16.1 25.7 0.00 0.00 0.00 30 1017.8
20260506210053 16 266 11.3 25.7 0.00 0.00 0.00 28 1018.1
20260506205726 16 298 9.7 33.8 0.00 0.00 0.00 31 1018.1
20260506205239 16 255 17.7 33.8 0.00 0.00 0.00 29 1018.2
20260506204809 16 306 16.1 30.6 0.00 0.00 0.00 30 1018.1
20260506204531 16 281 12.9 30.6 0.00 0.00 0.00 32 1018.2
20260506204232 16 292 12.9 24.1 0.00 0.00 0.00 32 1018.3
20260506203743 16 328 8.0 35.4 0.00 0.00 0.00 28 1018.3
20260506203227 16 292 20.9 35.4 0.00 0.00 0.00 29 1018.4
20260506203037 16 281 22.5 35.4 0.00 0.00 0.00 28 1018.4
20260506202736 16 304 20.9 32.2 0.00 0.00 0.00 31 1018.5
20260506202243 16 299 12.9 35.4 0.00 0.00 0.00 29 1018.5
20260506201724 17 275 16.1 35.4 0.00 0.00 0.00 30 1018.5
20260506201543 16 306 24.1 35.4 0.00 0.00 0.00 31 1018.7
20260506201237 16 291 19.3 32.2 0.00 0.00 0.00 31 1018.6
20260506200806 16 332 19.3 29.0 0.00 0.00 0.00 29 1018.6
20260506200227 17 335 11.3 30.6 0.00 0.00 0.00 34 1018.6
20260506200019 16 344 12.9 30.6 0.00 0.00 0.00 37 1018.8
20260506195801 15 321 11.3 30.6 0.00 0.00 0.00 35 1018.6
20260506195225 15 279 14.5 27.4 0.00 0.00 0.00 35 1018.7
20260506194732 15 333 16.1 32.2 0.00 0.00 0.00 31 1018.8
20260506194505 15 302 14.5 32.2 0.00 0.00 0.00 32 1018.9
20260506194245 16 293 17.7 32.2 0.00 0.00 0.00 31 1018.8
20260506193729 15 305 20.9 33.8 0.00 0.00 0.00 34 1018.8
20260506193300 15 346 19.3 33.8 0.00 0.00 0.00 31 1018.8
20260506193040 15 315 20.9 33.8 0.00 0.00 0.00 32 1019.0
20260506192723 15 271 12.9 29.0 0.00 0.00 0.00 34 1018.7
20260506192236 16 289 16.1 32.2 0.00 0.00 0.00 32 1018.8
20260506191749 16 312 20.9 32.2 0.00 0.00 0.00 31 1018.8
20260506191551 16 286 24.1 32.2 0.00 0.00 0.00 32 1018.9
20260506191231 15 311 16.1 37.0 0.00 0.00 0.00 33 1018.7
20260506190744 16 278 19.3 40.2 0.00 0.00 0.00 30 1018.8
20260506190235 16 267 25.7 40.2 0.00 0.00 0.00 32 1018.8
20260506190033 16 287 22.5 38.6 0.00 0.00 0.00 33 1019.0
20260506185745 16 248 24.1 38.6 0.00 0.00 0.00 33 1018.8
20260506185227 15 316 22.5 33.8 0.00 0.00 0.00 31 1018.9
20260506184740 14 340 22.5 33.8 0.00 0.00 0.00 32 1019.0
20260506184535 14 5 17.7 29.0 0.00 0.00 0.00 33 1019.2
20260506184225 15 316 16.1 29.0 0.00 0.00 0.00 32 1019.2
20260506183734 15 321 12.9 27.4 0.00 0.00 0.00 36 1019.2
20260506183239 14 288 11.3 32.2 0.00 0.00 0.00 34 1019.3
20260506183044 14 336 11.3 32.2 0.00 0.00 0.00 33 1019.4
20260506182750 15 323 14.5 32.2 0.00 0.00 0.00 35 1019.3
20260506182231 15 345 16.1 24.1 0.00 0.00 0.00 34 1019.3
20260506181743 15 317 8.0 29.0 0.00 0.00 0.00 39 1019.3
20260506181547 14 355 11.3 29.0 0.00 0.00 0.00 39 1019.6
20260506181228 15 355 19.3 29.0 0.00 0.00 0.00 32 1019.4
20260506180800 16 344 19.3 29.0 0.00 0.00 0.00 34 1019.4
20260506180250 15 331 14.5 22.5 0.00 0.00 0.00 39 1019.3
20260506180045 15 250 12.9 27.4 0.00 0.00 0.00 33 1019.6
20260506175739 16 297 11.3 29.0 0.00 0.00 0.00 38 1019.5
20260506175249 15 284 19.3 35.4 0.00 0.00 0.00 34 1019.7
20260506174732 15 288 20.9 35.4 0.00 0.00 0.00 35 1019.6
20260506174549 15 265 14.5 29.0 0.00 0.00 0.00 37 1019.9
20260506174306 15 249 14.5 33.8 0.00 0.00 0.00 37 1019.7
20260506173727 15 251 22.5 33.8 0.00 0.00 0.00 33 1019.8
20260506173259 15 330 20.9 40.2 0.00 0.00 0.00 35 1019.9
20260506173002 15 296 22.5 40.2 0.00 0.00 0.00 34 1020.1
20260506172745 15 298 20.9 40.2 0.00 0.00 0.00 33 1019.9
20260506172226 15 282 20.9 32.2 0.00 0.00 0.00 35 1019.9
20260506171739 15 322 11.3 24.1 0.00 0.00 0.00 38 1020.1
20260506171508 14 309 16.1 24.1 0.00 0.00 0.00 39 1020.3
20260506171254 13 338 9.7 17.7 0.00 0.00 0.00 42 1020.2
20260506170745 13 265 11.3 22.5 0.00 0.00 0.00 38 1020.2
20260506170228 13 292 11.3 30.6 0.00 0.00 0.00 37 1020.2
20260506170048 13 347 11.3 30.6 0.00 0.00 0.00 43 1020.3
20260506165739 13 329 11.3 30.6 0.00 0.00 0.00 36 1020.2
20260506165221 14 333 20.9 30.6 0.00 0.00 0.00 38 1020.2
20260506164728 13 315 14.5 29.0 0.00 0.00 0.00 37 1020.3
20260506164559 13 328 12.9 30.6 0.00 0.00 0.00 39 1020.4
20260506164242 13 312 17.7 32.2 0.00 0.00 0.00 38 1020.4
20260506163723 13 320 24.1 32.2 0.00 0.00 0.00 35 1020.3
20260506163237 13 288 20.9 30.6 0.00 0.00 0.00 37 1020.3
20260506163008 13 360 12.9 27.4 0.00 0.00 0.00 38 1020.5
20260506162747 13 348 14.5 32.2 0.00 0.00 0.00 36 1020.3
20260506162232 13 253 14.5 32.2 0.00 0.00 0.00 38 1020.4
20260506161743 13 293 16.1 29.0 0.00 0.00 0.00 38 1020.4
20260506161511 13 294 19.3 29.0 0.00 0.00 0.00 39 1020.5
20260506161226 13 314 17.7 29.0 0.00 0.00 0.00 38 1020.3
20260506160732 12 253 14.5 27.4 0.00 0.00 0.00 39 1020.3
20260506160246 12 306 17.7 25.7 0.00 0.00 0.00 37 1020.2
20260506160015 12 285 14.5 25.7 0.00 0.00 0.00 39 1020.5
20260506155730 12 355 14.5 25.7 0.00 0.00 0.00 38 1020.4
20260506155244 12 309 14.5 20.9 0.00 0.00 0.00 39 1020.2
20260506154726 12 323 6.4 41.8 0.00 0.00 0.00 37 1020.2
20260506154512 12 288 12.9 41.8 0.00 0.00 0.00 39 1020.3
20260506154300 12 293 16.1 41.8 0.00 0.00 0.00 37 1020.2
20260506153723 13 325 11.3 24.1 0.00 0.00 0.00 37 1020.2
20260506153230 12 307 9.7 24.1 0.00 0.00 0.00 40 1020.2
20260506153053 12 302 14.5 30.6 0.00 0.00 0.00 37 1020.4
20260506152743 13 348 14.5 30.6 0.00 0.00 0.00 39 1020.1
20260506152227 13 290 14.5 24.1 0.00 0.00 0.00 39 1020.1
20260506151758 13 295 12.9 22.5 0.00 0.00 0.00 40 1020.0
20260506151538 12 336 14.5 22.5 0.00 0.00 0.00 40 1020.3
20260506151311 13 315 4.8 20.9 0.00 0.00 0.00 41 1020.1
20260506150731 12 303 12.9 20.9 0.00 0.00 0.00 39 1020.1
20260506150241 12 336 8.0 20.9 0.00 0.00 0.00 41 1020.2
20260506150016 11 336 4.8 20.9 0.00 0.00 0.00 44 1020.4
20260506145747 12 324 12.9 20.9 0.00 0.00 0.00 43 1020.2
20260506145237 11 323 8.0 17.7 0.00 0.00 0.00 44 1020.3
20260506144721 12 313 11.3 16.1 0.00 0.00 0.00 45 1020.2
20260506144504 11 329 6.4 16.1 0.00 0.00 0.00 42 1020.5
20260506144236 11 355 8.0 16.1 0.00 0.00 0.00 43 1020.2
20260506143745 12 355 6.4 16.1 0.00 0.00 0.00 45 1020.3
20260506143255 11 340 9.7 12.9 0.00 0.00 0.00 44 1020.2
20260506143033 11 336 6.4 12.9 0.00 0.00 0.00 47 1020.4
20260506142743 11 329 6.4 19.3 0.00 0.00 0.00 43 1020.2
20260506142226 11 323 11.3 19.3 0.00 0.00 0.00 44 1020.2
20260506141738 10 347 8.0 16.1 0.00 0.00 0.00 43 1020.1
20260506141532 10 5 9.7 16.1 0.00 0.00 0.00 44 1020.4
20260506141312 11 328 8.0 16.1 0.00 0.00 0.00 43 1020.2
20260506140733 10 342 9.7 16.1 0.00 0.00 0.00 44 1020.1
20260506140244 11 314 4.8 16.1 0.00 0.00 0.00 50 1020.1
20260506140018 10 316 6.4 16.1 0.00 0.00 0.00 51 1020.3
20260506135726 10 360 9.7 16.1 0.00 0.00 0.00 47 1020.0
20260506135238 10 355 11.3 16.1 0.00 0.00 0.00 47 1019.8
20260506134746 9 5 9.7 16.1 0.00 0.00 0.00 48 1019.8
20260506134514 9 5 12.9 16.1 0.00 0.00 0.00 48 1020.1
20260506134230 9 22 9.7 16.1 0.00 0.00 0.00 48 1019.7
20260506133740 9 5 9.7 14.5 0.00 0.00 0.00 48 1019.7
20260506133223 9 342 4.8 12.9 0.00 0.00 0.00 52 1019.7
20260506133006 8 355 3.2 12.9 0.00 0.00 0.00 53 1020.0
20260506132732 8 321 6.4 12.9 0.00 0.00 0.00 54 1019.7
20260506132242 8 5 8.0 12.9 0.00 0.00 0.00 51 1019.6
20260506131723 8 298 6.4 14.5 0.00 0.00 0.00 53 1019.6
20260506131548 8 360 6.4 14.5 0.00 0.00 0.00 55 1019.8
20260506131233 8 343 8.0 14.5 0.00 0.00 0.00 52 1019.5
20260506130744 8 350 6.4 12.9 0.00 0.00 0.00 54 1019.4
20260506130228 7 321 4.8 14.5 0.00 0.00 0.00 57 1019.4
20260506130050 7 324 8.0 14.5 0.00 0.00 0.00 56 1019.6
20260506125739 7 325 9.7 14.5 0.00 0.00 0.00 55 1019.3
20260506125222 7 310 9.7 14.5 0.00 0.00 0.00 56 1019.4
20260506124754 6 315 8.0 14.5 0.00 0.00 0.00 58 1019.3
20260506124534 6 321 6.4 9.7 0.00 0.00 0.00 59 1019.5
20260506124246 6 320 4.8 12.9 0.00 0.00 0.00 59 1019.1
20260506123728 6 329 6.4 12.9 0.00 0.00 0.00 59 1019.0
20260506123256 6 302 6.4 12.9 0.00 0.00 0.00 59 1018.9
20260506123006 5 309 4.8 12.9 0.00 0.00 0.00 59 1019.1
20260506122748 6 313 8.0 12.9 0.00 0.00 0.00 59 1018.9
20260506122227 5 323 4.8 8.0 0.00 0.00 0.00 60 1018.8
20260506121737 5 323 3.2 6.4 0.00 0.00 0.00 59 1018.6
20260506121556 5 323 3.2 6.4 0.00 0.00 0.00 59 1018.8
20260506121249 5 323 4.8 6.4 0.00 0.00 0.00 59 1018.6
20260506120730 5 323 3.2 6.4 0.00 0.00 0.00 59 1018.5
20260506120243 5 348 3.2 6.4 0.00 0.00 0.00 59 1018.5
20260506120039 4 347 3.2 6.4 0.00 0.00 0.00 59 1018.7
20260506115730 4 348 4.8 9.7 0.00 0.00 0.00 59 1018.4
20260506115240 4 330 4.8 9.7 0.00 0.00 0.00 58 1018.4
20260506114725 4 317 6.4 8.0 0.00 0.00 0.00 58 1018.3
20260506114540 4 327 4.8 8.0 0.00 0.00 0.00 58 1018.4
20260506114239 5 330 4.8 8.0 0.00 0.00 0.00 58 1018.1
20260506113749 5 325 6.4 8.0 0.00 0.00 0.00 58 1018.1
20260506113242 5 318 4.8 8.0 0.00 0.00 0.00 58 1018.1
20260506113022 4 319 4.8 8.0 0.00 0.00 0.00 58 1018.3
20260506112724 5 315 4.8 8.0 0.00 0.00 0.00 58 1018.2
20260506112231 5 317 4.8 8.0 0.00 0.00 0.00 57 1018.1
20260506111742 5 325 4.8 6.4 0.00 0.00 0.00 57 1018.1
20260506111528 5 314 3.2 6.4 0.00 0.00 0.00 57 1018.3
20260506111254 5 311 4.8 6.4 0.00 0.00 0.00 57 1018.1
20260506110723 5 315 4.8 8.0 0.00 0.00 0.00 57 1018.0
20260506110234 5 315 4.8 8.0 0.00 0.00 0.00 56 1017.9
20260506110052 5 315 4.8 8.0 0.00 0.00 0.00 56 1018.1
20260506105745 5 318 4.8 8.0 0.00 0.00 0.00 56 1018.0
20260506105226 5 315 4.8 8.0 0.00 0.00 0.00 55 1018.0
20260506104734 5 316 6.4 8.0 0.00 0.00 0.00 54 1018.0
20260506104600 5 326 4.8 6.4 0.00 0.00 0.00 54 1018.2
20260506104248 5 330 4.8 6.4 0.00 0.00 0.00 54 1018.0
20260506103730 5 328 4.8 6.4 0.00 0.00 0.00 53 1018.0
20260506103240 5 321 4.8 9.7 0.00 0.00 0.00 53 1017.9
20260506103058 5 327 4.8 9.7 0.00 0.00 0.00 53 1018.1
20260506102724 5 319 6.4 9.7 0.00 0.00 0.00 53 1017.9
20260506102235 5 329 8.0 9.7 0.00 0.00 0.00 53 1017.9
20260506101745 5 327 6.4 9.7 0.00 0.00 0.00 53 1017.9
20260506101558 5 317 6.4 9.7 0.00 0.00 0.00 53 1017.9
20260506101229 6 319 6.4 9.7 0.00 0.00 0.00 52 1017.8
20260506100735 6 323 6.4 9.7 0.00 0.00 0.00 52 1017.7
20260506100245 6 325 6.4 9.7 0.00 0.00 0.00 52 1017.7
20260506100100 5 327 6.4 11.3 0.00 0.00 0.00 52 1017.9
20260506095728 6 325 6.4 8.0 0.00 0.00 0.00 51 1017.7
20260506095300 6 317 6.4 8.0 0.00 0.00 0.00 51 1017.6
20260506094749 6 332 6.4 8.0 0.00 0.00 0.00 50 1017.6
20260506094536 6 332 4.8 8.0 0.00 0.00 0.00 50 1017.7
20260506094234 6 339 4.8 8.0 0.00 0.00 0.00 50 1017.5
20260506093744 6 336 6.4 9.7 0.00 0.00 0.00 50 1017.5
20260506093310 6 329 6.4 9.7 0.00 0.00 0.00 49 1017.5
20260506093047 6 317 4.8 8.0 0.00 0.00 0.00 49 1017.7
20260506092732 6 324 6.4 8.0 0.00 0.00 0.00 49 1017.4
20260506092306 6 327 4.8 6.4 0.00 0.00 0.00 49 1017.4
20260506091725 6 329 4.8 6.4 0.00 0.00 0.00 49 1017.3
20260506091527 6 333 4.8 6.4 0.00 0.00 0.00 49 1017.4
20260506091237 6 336 3.2 8.0 0.00 0.00 0.00 49 1017.3
20260506090748 6 336 4.8 9.7 0.00 0.03 0.00 49 1017.3
20260506090231 7 340 4.8 12.9 0.00 0.03 0.00 48 1017.3
20260506090031 6 344 6.4 12.9 0.00 0.03 0.00 48 1017.4
20260506085738 7 351 6.4 12.9 0.00 0.03 0.00 48 1017.2
20260506085249 7 336 6.4 9.7 0.00 0.03 0.00 48 1017.2
20260506084739 7 345 4.8 8.0 0.00 0.03 0.00 48 1017.2
20260506084511 6 341 4.8 8.0 0.00 0.03 0.00 48 1017.3
20260506084310 7 348 4.8 8.0 0.00 0.03 0.00 48 1017.1
20260506083730 7 344 4.8 8.0 0.00 0.03 0.00 48 1017.0
20260506083242 7 338 4.8 8.0 0.00 0.03 0.00 48 1017.0
20260506083050 7 342 4.8 8.0 0.00 0.03 0.00 48 1017.2
20260506082723 7 333 4.8 8.0 0.00 0.03 0.00 48 1016.9
20260506082250 7 348 6.4 8.0 0.00 0.03 0.00 47 1016.9
20260506081741 7 341 6.4 8.0 0.00 0.03 0.00 47 1016.9
20260506081527 7 344 4.8 8.0 0.00 0.03 0.00 47 1017.0
20260506081254 7 343 4.8 8.0 0.00 0.03 0.00 47 1016.9
20260506080740 7 335 4.8 9.7 0.00 0.03 0.00 47 1016.9
20260506080222 7 336 4.8 8.0 0.00 0.03 0.00 46 1016.8
20260506073239 7 360 6.4 9.7 0.00 0.03 0.00 45 1016.5
20260506073023 7 350 4.8 8.0 0.00 0.03 0.00 45 1016.7
20260506072749 7 355 6.4 8.0 0.00 0.03 0.00 45 1016.6
20260506072240 8 348 6.4 9.7 0.00 0.03 0.00 45 1016.6
20260506071747 8 348 6.4 9.7 0.00 0.03 0.00 45 1016.6
20260506071505 7 355 6.4 9.7 0.00 0.03 0.00 45 1016.7
20260506071233 8 5 6.4 14.5 0.00 0.03 0.00 45 1016.6
20260506070743 8 355 6.4 14.5 0.00 0.03 0.00 45 1016.7
20260506070226 8 360 8.0 9.7 0.00 0.03 0.00 44 1016.6
20260506062230 8 355 6.4 12.9 0.00 0.03 0.00 43 1016.7
20260506061742 8 5 9.7 14.5 0.00 0.03 0.00 42 1016.6
20260506061535 8 5 6.4 14.5 0.00 0.03 0.00 42 1016.7
20260506061228 8 339 8.0 14.5 0.00 0.03 0.00 42 1016.7
20260506060740 8 329 8.0 14.5 0.00 0.03 0.00 42 1016.6
20260506060222 8 343 9.7 16.1 0.00 0.03 0.00 41 1016.5
20260506051240 9 355 9.7 19.3 0.00 0.03 0.00 40 1016.1
20260506050749 9 351 11.3 19.3 0.00 0.03 0.03 41 1015.9
20260506050233 9 328 11.3 17.7 0.00 0.03 0.03 41 1015.9
20260506050107 9 346 9.7 17.7 0.00 0.03 0.03 40 1016.0
20260506044733 10 344 9.7 16.1 0.00 0.03 0.03 40 1015.8
20260506044510 9 355 8.0 16.1 0.00 0.03 0.03 40 1015.7
20260506044242 10 355 9.7 16.1 0.00 0.03 0.03 40 1015.6
20260506043724 10 355 9.7 14.5 0.00 0.03 0.03 40 1015.7
20260506043235 10 344 12.9 17.7 0.00 0.03 0.03 40 1015.7
20260506043016 9 360 9.7 17.7 0.00 0.03 0.03 40 1015.7
20260506042748 10 360 12.9 17.7 0.00 0.03 0.03 40 1015.7
20260506042232 10 350 11.3 16.1 0.00 0.03 0.03 40 1015.6
20260506041744 10 348 8.0 14.5 0.00 0.03 0.03 40 1015.6
20260506041516 10 343 8.0 14.5 0.00 0.03 0.03 41 1015.6
20260506041229 10 347 9.7 14.5 0.00 0.03 0.03 40 1015.5
20260506040740 10 360 8.0 14.5 0.00 0.03 0.03 40 1015.4
20260506040247 10 342 8.0 14.5 0.00 0.03 0.03 40 1015.4
20260506040033 10 351 8.0 16.1 0.00 0.03 0.03 40 1015.4
20260506035731 10 355 8.0 16.1 0.00 0.03 0.03 40 1015.4
20260506035306 10 348 9.7 16.1 0.00 0.03 0.03 39 1015.4
20260506034725 10 333 11.3 16.1 0.00 0.03 0.03 39 1015.5
20260506034556 10 360 9.7 17.7 0.00 0.03 0.03 39 1015.5
20260506034237 10 350 9.7 17.7 0.00 0.03 0.03 39 1015.5
20260506033746 10 344 9.7 17.7 0.00 0.03 0.03 39 1015.4
20260506033230 10 345 11.3 17.7 0.00 0.03 0.03 38 1015.4
20260506033058 10 348 9.7 17.7 0.00 0.03 0.03 38 1015.4
20260506032737 10 345 11.3 16.1 0.00 0.03 0.03 38 1015.3
20260506032249 10 5 11.3 16.1 0.00 0.03 0.03 38 1015.3
20260506031738 10 343 11.3 16.1 0.00 0.03 0.03 38 1015.3
20260506031546 10 348 11.3 16.1 0.00 0.03 0.03 38 1015.2
20260506031224 11 360 11.3 17.7 0.00 0.03 0.03 38 1015.2
20260506030736 11 327 11.3 22.5 0.00 0.03 0.03 37 1015.2
20260506030248 11 5 16.1 22.5 0.00 0.03 0.03 37 1015.1